Location: Heilbronn
(49.1548°N, 9.2780°E)
Time: 09:56:39
(UTC+02:00)

OTV 5 (USA 277) - Visible Passes

Search period start: 18 June 2018 00:00
Search period end: 28 June 2018 00:00
Orbit: 313 x 320 km, 54.5° (Epoch: 16 June)

Date Brightness Start Highest point End Pass type
(mag) Time Alt. Az. Time Alt. Az. Time Alt. Az.
18 Jun ? 00:15:41 10° WNW 00:18:09 30° NNW 00:20:37 10° NE visible
18 Jun ? 01:50:34 10° NW 01:52:57 26° N 01:55:20 10° ENE visible
18 Jun ? 03:24:50 10° WNW 03:27:33 78° NNE 03:30:17 10° ESE visible
18 Jun ? 22:55:28 10° WSW 22:58:08 61° NNW 23:00:50 10° ENE visible
19 Jun ? 00:30:28 10° WNW 00:32:48 25° N 00:35:09 10° NE visible
19 Jun ? 02:05:04 10° NW 02:07:36 34° NNE 02:10:08 10° E visible
19 Jun ? 03:39:21 10° WNW 03:41:59 47° SW 03:44:37 10° SE visible
19 Jun ? 23:10:09 10° W 23:12:42 36° NNW 23:15:16 10° NE visible
20 Jun ? 00:45:09 10° NW 00:47:29 25° N 00:49:49 10° ENE visible
20 Jun ? 02:19:29 10° WNW 02:22:10 55° NNE 02:24:51 10° ESE visible
20 Jun ? 03:54:08 10° W 03:56:18 21° SW 03:58:27 10° S visible
20 Jun ? 23:24:56 10° WNW 23:27:20 27° N 23:29:44 10° NE visible
21 Jun ? 00:59:41 10° NW 01:02:08 29° NNE 01:04:35 10° ENE visible
21 Jun ? 02:33:56 10° WNW 02:36:39 73° SSW 02:37:45 31° SE visible
21 Jun ? 23:39:41 10° WNW 23:42:00 24° N 23:44:20 10° ENE visible
22 Jun ? 01:14:09 10° NW 01:16:45 41° NNE 01:18:54 14° E visible
22 Jun ? 02:48:33 10° WNW 02:49:40 20° W 02:49:40 20° W visible
22 Jun ? 22:19:25 10° WNW 22:21:52 30° NNW 22:24:21 10° NE visible
22 Jun ? 23:54:18 10° NW 23:56:41 26° N 23:59:03 10° ENE visible
23 Jun ? 01:28:35 10° WNW 01:31:17 77° NNE 01:31:37 63° E visible
23 Jun ? 22:34:11 10° WNW 22:36:32 25° N 22:38:52 10° NE visible
24 Jun ? 00:08:48 10° NW 00:11:19 33° NNE 00:13:49 10° E visible
24 Jun ? 01:43:05 10° WNW 01:44:40 29° W 01:44:40 29° W visible
24 Jun ? 22:48:53 10° NW 22:51:12 25° N 22:53:32 10° ENE visible
25 Jun ? 00:23:13 10° WNW 00:25:54 54° NNE 00:27:03 28° E visible
25 Jun ? 01:57:51 10° W 01:57:52 10° W 01:57:52 10° W visible
25 Jun ? 23:03:26 10° NW 23:05:52 29° NNE 23:08:18 10° ENE visible
26 Jun ? 00:37:40 10° WNW 00:40:22 74° SW 00:40:22 74° SW visible
26 Jun ? 23:17:53 10° NW 23:20:29 41° NNE 23:22:57 11° E visible
27 Jun ? 00:52:17 10° WNW 00:53:47 24° W 00:53:47 24° W visible
27 Jun ? 23:32:18 10° WNW 23:35:01 75° NNE 23:36:25 25° ESE visible
